When you browse on this site, cookies collect data to enhance your experience and personalize the content and advertising you see.
Visit our Privacy Policy to learn more. By continuing to use the site, you agree to this use of cookies and data.
  • In Latvia
  • List of Countries
  • For 7 days
  • Water Temperature
  • Weather Map
  • Weather Widgets
  • user-avatar
    Login

    Hourly Weather Canberra

    Today, 1 June, Monday

    Time Temperature Precipitation Wind Pressure Humidity
    00:00 +8°C° 0 mm 2 mps 705 mmHg 89%
    01:00 +8°C° 0 mm 2 mps 704 mmHg 90%
    02:00 +8°C° 0 mm 2 mps 704 mmHg 91%
    03:00 +7°C° 0 mm 2 mps 704 mmHg 91%
    04:00 +8°C° 0 mm 3 mps 703 mmHg 89%
    05:00 +7°C° 0.1 mm 3 mps 703 mmHg 91%
    06:00 +7°C° 0.1 mm 3 mps 703 mmHg 93%
    07:00 +7°C° 0.1 mm 3 mps 703 mmHg 95%
    08:00 +7°C° 0 mm 4 mps 702 mmHg 88%
    09:00 +8°C° 0 mm 6 mps 702 mmHg 81%
    10:00 +10°C° 0 mm 7 mps 702 mmHg 70%
    11:00 +9°C° 0.3 mm 7 mps 702 mmHg 76%
    12:00 +8°C° 0.3 mm 6 mps 702 mmHg 83%
    13:00 +5°C° 0.3 mm 6 mps 701 mmHg 89%
    14:00 +5°C° 0.1 mm 6 mps 702 mmHg 88%
    15:00 +6°C° 0.1 mm 5 mps 702 mmHg 86%
    16:00 +6°C° 0.1 mm 5 mps 702 mmHg 85%
    17:00 +5°C° 0.1 mm 4 mps 703 mmHg 88%
    18:00 +4°C° 0.1 mm 4 mps 703 mmHg 90%
    19:00 +3°C° 0.1 mm 3 mps 704 mmHg 93%
    20:00 +3°C° 0 mm 3 mps 704 mmHg 93%
    21:00 +3°C° 0 mm 3 mps 704 mmHg 92%
    22:00 +3°C° 0 mm 3 mps 705 mmHg 92%
    23:00 +2°C° 0 mm 3 mps 705 mmHg 93%

    Tomorrow, 2 June, Tuesday

    Time Temperature Precipitation Wind Pressure Humidity
    00:00 +3°C° 0 mm 2 mps 705 mmHg 94%
    01:00 +2°C° 0 mm 2 mps 705 mmHg 96%
    02:00 +2°C° 0 mm 2 mps 705 mmHg 95%
    03:00 +2°C° 0 mm 1 mps 705 mmHg 95%
    04:00 +2°C° 0 mm 1 mps 705 mmHg 95%
    05:00 +2°C° 0 mm 1 mps 706 mmHg 95%
    06:00 +2°C° 0 mm 1 mps 706 mmHg 95%
    07:00 +2°C° 0 mm 1 mps 707 mmHg 95%
    08:00 +4°C° 0 mm 1 mps 707 mmHg 88%
    09:00 +6°C° 0 mm 1 mps 708 mmHg 82%
    10:00 +8°C° 0 mm 1 mps 709 mmHg 75%
    11:00 +8°C° 0 mm 2 mps 709 mmHg 70%
    12:00 +10°C° 0 mm 2 mps 709 mmHg 64%
    13:00 +12°C° 0 mm 2 mps 709 mmHg 58%
    14:00 +12°C° 0 mm 2 mps 709 mmHg 62%
    15:00 +10°C° 0 mm 3 mps 709 mmHg 66%
    16:00 +9°C° 0 mm 3 mps 709 mmHg 70%
    17:00 +7°C° 0 mm 2 mps 709 mmHg 78%
    18:00 +5°C° 0 mm 2 mps 709 mmHg 86%
    19:00 +4°C° 0 mm 1 mps 709 mmHg 95%
    20:00 +4°C° 0 mm 1 mps 710 mmHg 95%
    21:00 +4°C° 0 mm 1 mps 710 mmHg 95%
    22:00 +3°C° 0 mm 1 mps 711 mmHg 96%
    23:00 +3°C° 0 mm 1 mps 710 mmHg 96%

    Day after tomorrow, 3 June, Wednesday

    Time Temperature Precipitation Wind Pressure Humidity
    00:00 +3°C° 0 mm 1 mps 710 mmHg 96%
    01:00 +3°C° 0 mm 1 mps 710 mmHg 96%
    02:00 +3°C° 0 mm 1 mps 710 mmHg 96%
    03:00 +3°C° 0 mm 1 mps 710 mmHg 96%
    04:00 +3°C° 0 mm 1 mps 710 mmHg 96%
    05:00 +3°C° 0 mm 1 mps 711 mmHg 96%
    06:00 +3°C° 0 mm 1 mps 711 mmHg 96%
    07:00 +2°C° 0 mm 1 mps 712 mmHg 96%
    08:00 +5°C° 0 mm 1 mps 712 mmHg 88%
    09:00 +7°C° 0 mm 1 mps 713 mmHg 79%
    10:00 +10°C° 0 mm 1 mps 714 mmHg 71%
    11:00 +11°C° 0 mm 1 mps 714 mmHg 63%
    12:00 +12°C° 0 mm 2 mps 714 mmHg 56%
    13:00 +12°C° 0 mm 3 mps 714 mmHg 49%
    14:00 +11°C° 0 mm 3 mps 715 mmHg 51%
    15:00 +10°C° 0 mm 3 mps 715 mmHg 53%
    16:00 +10°C° 0 mm 3 mps 715 mmHg 55%
    17:00 +8°C° 0 mm 3 mps 716 mmHg 63%
    18:00 +5°C° 0 mm 3 mps 716 mmHg 71%
    19:00 +3°C° 0 mm 3 mps 717 mmHg 78%
    20:00 +3°C° 0 mm 2 mps 717 mmHg 82%
    21:00 +2°C° 0 mm 2 mps 718 mmHg 85%
    22:00 +2°C° 0 mm 2 mps 718 mmHg 89%
    23:00 +1°C° 0 mm 2 mps 718 mmHg 90%

    4 June, Thursday

    Time Temperature Precipitation Wind Pressure Humidity
    00:00 +1°C° 0 mm 2 mps 718 mmHg 91%
    01:00 +1°C° 0 mm 2 mps 718 mmHg 93%
    02:00 -1°C° 0 mm 2 mps 718 mmHg 93%
    03:00 -1°C° 0 mm 2 mps 718 mmHg 93%
    04:00 -1°C° 0 mm 2 mps 718 mmHg 93%
    05:00 +1°C° 0 mm 1 mps 719 mmHg 92%
    06:00 +1°C° 0 mm 1 mps 719 mmHg 90%
    07:00 0°C° 0 mm 1 mps 719 mmHg 89%
    08:00 +3°C° 0 mm 1 mps 720 mmHg 78%
    09:00 +6°C° 0 mm 1 mps 720 mmHg 66%
    10:00 +9°C° 0 mm 1 mps 721 mmHg 54%
    11:00 +10°C° 0 mm 1 mps 720 mmHg 50%
    12:00 +12°C° 0 mm 1 mps 720 mmHg 46%
    13:00 +13°C° 0 mm 1 mps 719 mmHg 41%
    14:00 +12°C° 0 mm 1 mps 719 mmHg 46%
    15:00 +12°C° 0 mm 1 mps 719 mmHg 50%
    16:00 +11°C° 0 mm 1 mps 718 mmHg 54%
    17:00 +9°C° 0 mm 1 mps 718 mmHg 61%
    18:00 +5°C° 0 mm 0 mps 719 mmHg 67%
    19:00 +3°C° 0 mm 0 mps 719 mmHg 74%
    20:00 +3°C° 0 mm 0 mps 719 mmHg 75%
    21:00 +3°C° 0 mm 0 mps 719 mmHg 76%
    22:00 +2°C° 0 mm 0 mps 719 mmHg 78%
    23:00 +2°C° 0 mm 0 mps 719 mmHg 78%

    5 June, Friday

    Time Temperature Precipitation Wind Pressure Humidity
    00:00 +2°C° 0 mm 0 mps 718 mmHg 79%
    01:00 +2°C° 0 mm 0 mps 718 mmHg 80%
    02:00 +1°C° 0 mm 0 mps 718 mmHg 81%
    03:00 +1°C° 0 mm 0 mps 717 mmHg 82%
    04:00 +1°C° 0 mm 0 mps 717 mmHg 82%
    05:00 +1°C° 0 mm 0 mps 717 mmHg 83%
    06:00 +1°C° 0 mm 0 mps 717 mmHg 83%
    07:00 0°C° 0 mm 0 mps 717 mmHg 84%
    08:00 +3°C° 0 mm 0 mps 718 mmHg 75%
    09:00 +7°C° 0 mm 1 mps 718 mmHg 65%
    10:00 +10°C° 0 mm 1 mps 718 mmHg 56%
    11:00 +11°C° 0 mm 1 mps 717 mmHg 53%
    12:00 +12°C° 0 mm 2 mps 717 mmHg 50%
    13:00 +13°C° 0 mm 2 mps 716 mmHg 47%
    14:00 +13°C° 0 mm 2 mps 716 mmHg 52%
    15:00 +12°C° 0 mm 2 mps 715 mmHg 56%
    16:00 +10°C° 0 mm 2 mps 715 mmHg 61%
    17:00 +8°C° 0 mm 2 mps 715 mmHg 70%
    18:00 +7°C° 0 mm 1 mps 715 mmHg 79%
    19:00 +5°C° 0 mm 1 mps 715 mmHg 88%
    20:00 +4°C° 0 mm 1 mps 715 mmHg 89%
    21:00 +3°C° 0 mm 0 mps 715 mmHg 89%
    22:00 +2°C° 0 mm 0 mps 715 mmHg 90%
    23:00 +2°C° 0 mm 0 mps 715 mmHg 90%

    6 June, Saturday

    Time Temperature Precipitation Wind Pressure Humidity
    00:00 +1°C° 0 mm 0 mps 714 mmHg 90%
    01:00 +1°C° 0 mm 0 mps 714 mmHg 90%
    02:00 +1°C° 0 mm 0 mps 714 mmHg 90%
    03:00 0°C° 0 mm 0 mps 713 mmHg 90%
    04:00 0°C° 0 mm 0 mps 713 mmHg 91%
    05:00 0°C° 0 mm 0 mps 713 mmHg 91%
    06:00 -1°C° 0 mm 0 mps 713 mmHg 91%
    07:00 -1°C° 0 mm 0 mps 713 mmHg 91%
    08:00 +3°C° 0 mm 1 mps 713 mmHg 82%
    09:00 +5°C° 0 mm 1 mps 713 mmHg 73%
    10:00 +7°C° 0 mm 2 mps 713 mmHg 64%
    11:00 +8°C° 0 mm 2 mps 713 mmHg 58%
    12:00 +10°C° 0 mm 3 mps 712 mmHg 53%
    13:00 +12°C° 0 mm 3 mps 712 mmHg 48%
    14:00 +11°C° 0 mm 3 mps 712 mmHg 52%
    15:00 +10°C° 0 mm 3 mps 711 mmHg 56%
    16:00 +8°C° 0 mm 4 mps 711 mmHg 60%
    17:00 +8°C° 0 mm 3 mps 711 mmHg 69%
    18:00 +6°C° 0 mm 2 mps 712 mmHg 79%
    19:00 +4°C° 0 mm 2 mps 712 mmHg 88%
    20:00 +4°C° 0 mm 1 mps 712 mmHg 90%
    21:00 +4°C° 0 mm 1 mps 712 mmHg 91%
    22:00 +3°C° 0 mm 1 mps 712 mmHg 93%
    23:00 +3°C° 0 mm 1 mps 712 mmHg 92%
    Show more